Regional Weather Roundup
Issued by NWS

Home | Current Version | Previous Version | Text Only | Print | Product List | Glossary Off
Versions: 1 2 3 4 5 6 7 8 9 10 11 12 13 14 15 16 17 18 19 20 21 22 23 24 25 26 27 28 29 30 31 32 33 34 35 36 37 38 39 40 41 42 43 44 45 46 47 48 49 50

000
ASUS45 KTFX 240519
RWRMT
MONTANA HOURLY WEATHER ROUNDUP
NATIONAL WEATHER SERVICE GREAT FALLS MT
1119 PM MDT WED APR 23 2014

NOTE: "FAIR" INDICATES FEW OR NO CLOUDS BELOW 12000 FEET WITH NO
SIGNIFICANT WEATHER AND/OR OBSTRUCTIONS TO VISIBILITY.

* THESE STATIONS ARE NOT UNDER NWS QUALITY CONTROL. THEY DO NOT
   REPORT WEATHER SUCH AS PRECIPITATION OR FOG.

MTZ001>007-043-240600-
WEST OF THE DIVIDE
CITY           SKY/WX    TMP DP  RH WIND       PRES   REMARKS
KALISPELL      CLOUDY    39  30  70 S10       29.85R WCI  32
MISSOULA       LGT RAIN  37  34  89 NE6       29.91R WCI  32
BUTTE          CLOUDY    37  21  52 SW12G17   29.86S WCI  29
MULLAN PASS    LGT SNOW  28  27  96 VRB3      29.82S VSB 3/4
* ESSEX        N/A       38  23  55 SE5        N/A   WCI  34
* LINCOLN      N/A       32  31  96 S3G8       N/A
* LOOKOUT PASS N/A       32  30  92 NE6G11     N/A   WCI  26
* POLSON       N/A       34  30  85 SE1        N/A
* RONAN APT    CLOUDY    43  30  60 N/A        N/A
* SEELEY LAKE  N/A       32  31  96 SW2        N/A
* THOMP F APT  PTCLDY    32  17  54 N3G10      N/A
$$

MTZ008-052>055-240600-
SOUTHWEST MONTANA
CITY           SKY/WX    TMP DP  RH WIND       PRES   REMARKS
BOZEMAN        CLOUDY    39  28  65 W6        29.86F WCI  35
DILLON         PTCLDY    36  23  59 SW12      29.89S WCI  28
W YELLOWSTONE  N/A       29  25  85 N/A        N/A
* THREE FORKS  MOCLDY    43  28  56 N/A        N/A
* BOULDER HILL N/A       33  21  61 S3         N/A
* MONIDA PASS  N/A       30  13  49 S12        N/A   WCI  20
* RAYNOLDS PAS N/A       27  14  58 S4         N/A
* WHITEHALL    N/A       37  26  64 NW7        N/A   WCI  32
* WISE RIVER   N/A       35  24  64 W11        N/A   WCI  27
$$

MTZ009>010-012-014-046-048-049-054-240600-
EAST SLOPES AND CENTRAL MONTANA
CITY           SKY/WX    TMP DP  RH WIND       PRES   REMARKS
CUT BANK       CLEAR     36  21  54 W21       29.69R WCI  25
GREAT FALLS    PTCLDY    36  27  70 SW14      29.75S WCI  27
HELENA         CLOUDY    39  30  70 S5        29.85S WCI  35
MALMSTROM AFB  PTCLDY    39  27  62 S18       29.73S WCI  30
* CONRAD       PTCLDY    32  25  75 N/A        N/A
* DEARBORN     N/A       41  28  60 S10G25     N/A
* EAST GLACIER N/A       34  18  52 NW24G35    N/A   WCI  22
* MONARCH      N/A       34  14  44 SW12G17    N/A   WCI  25
* PENDROY      N/A       34  24  67 W16        N/A   WCI  24
* ROGERS PASS  N/A       30  28  92 SE7G15     N/A   WCI  23
* SAINT MARY   N/A       35  22  59 SW10G23    N/A   WCI  27
* SWEET GRASS  N/A       37  24  59 SE22G31    N/A   WCI  26
* WHITE SULPH  N/A       34  26  73 W3G9       N/A
$$

MTZ011-013-016-021-035-040-045-047-050-051-240600-
NORTH CENTRAL MONTANA
CITY           SKY/WX    TMP DP  RH WIND       PRES   REMARKS
HAVRE          CLEAR     39  27  62 SW16      29.69R WCI  30
LEWISTOWN      MOCLDY    37  25  62 SW17      29.76S WCI  27
* CHINOOK      CLEAR     45  25  45 SW16G24   29.68R
* FORT BENTON  CLEAR     41  28  60 SW14      29.76R
* CHESTER      N/A       40  23  51 W10G16     N/A   WCI  34
* DENTON       N/A       36  19  50 SW12       N/A   WCI  28
* GEYSER       N/A       37  21  52 SW17       N/A   WCI  27
* JUDITH GAP   N/A       37  23  57 SW22G28    N/A   WCI  26
* LOMA         N/A       42  28  58 SW8G13     N/A
$$

MTZ017>020-022>027-061-062-240600-
NORTHEAST MONTANA
CITY           SKY/WX    TMP DP  RH WIND       PRES   REMARKS
GLASGOW        CLEAR     45  27  49 W8        29.66R
GLENDIVE       CLEAR     45  21  38 W13       29.72R
JORDAN         CLEAR     41  21  45 W8        29.72R
SIDNEY         CLEAR     46  23  40 W14       29.67S
WOLF POINT     PTCLDY    45  21  38 W12       29.67R
* BEAVER HILL  N/A       45  20  37 SW13G18    N/A
* CIRCLE       N/A       47  25  42 W6         N/A
* LINDSAY DVD  N/A       44  19  37 SW19       N/A
* NAVAJO       N/A       40  33  76 W8         N/A   WCI  35
* SACO         N/A       45  24  44 SW15G20    N/A
$$

MTZ028>042-056>058-240600-
SOUTHCENTRAL AND SOUTHEAST MONTANA
CITY           SKY/WX    TMP DP  RH WIND       PRES   REMARKS
BAKER          CLEAR     45  23  42 W13       29.75R
BILLINGS       MOCLDY    45  23  42 W16       29.81S
LIVINGSTON     CLOUDY    43  21  42 W21G28    29.83R
MILES CITY     PTCLDY    45  21  38 W14       29.76R
* LAUREL APT   PTCLDY    39  19  45 W6         N/A   WCI  35
* ROUNDUP APT  PTCLDY    39  25  57 SW11       N/A   WCI  32
* HYSHAM       N/A       44  17  34 W9G14      N/A
* LAME DEER    N/A       41  18  39 W7G12      N/A
* REED POINT   N/A       43  26  51 W6G11      N/A
* ROSCOE HILL  N/A       41  10  28 SW9G19     N/A
$$

REGIONAL REPORTS...DAKOTAS
CITY           SKY/WX    TMP DP  RH WIND       PRES   REMARKS
WILLISTON      PTCLDY    36  34  92 SW3       29.63S
DICKINSON      MOCLDY    36  23  59 S5        29.68S WCI  32
CROSBY         FAIR      41  41 100 CALM      29.62S
TIOGA          CLEAR     37  37 100 S9        29.66F WCI  30
WATFORD CITY   CLEAR     36  27  70 W6        29.64R WCI  31
BISMARCK       CLOUDY    37 N/A N/A CALM      29.71S
GRAND FORKS    LGT RAIN  39  36  89 SE16G23   29.83F WCI  30
FARGO          CLOUDY    43  37  79 SE15      29.80R
BUFFALO SD     PTCLDY    41  27  58 W13       29.70R
RAPID CITY     CLOUDY    41  28  60 N9        29.80R
$$

REGIONAL REPORTS...WYOMING/IDAHO/WASHINGTON
CITY           SKY/WX    TMP DP  RH WIND       PRES   REMARKS
GILLETTE       PTCLDY    34  21  59 W8        29.85R WCI  27
SHERIDAN       CLEAR     36  19  50 W9        29.84R WCI  29
CODY           PTCLDY    39  23  53 SW9       29.88R WCI  33
YELLOWSTONE LA PTCLDY    27  19  72 VRB7      29.97R WCI  19
SALMON         PTCLDY    39  21  48 SW10      29.91S WCI  32
MULLAN PASS    LGT SNOW  28  27  96 VRB3      29.82S VSB 3/4
SAND POINT     CLOUDY    39  39 100 CALM      29.87R
SPOKANE        CLOUDY    43  36  76 SE10      29.84S
$$

REGIONAL REPORTS...ALBERTA
CITY           SKY/WX    TMP DP  RH WIND       PRES   REMARKS
CALGARY        FAIR      36  32  85 SW6       29.63R WCI  31
LETHBRIDGE     CLEAR     41  21  45 W24G30    29.65R
MEDICINE HAT   CLOUDY    41  39  93 W12       29.63R
EDMONTON       LGT RAIN  36  32  85 NW22G29   29.59R WCI  25
WATERTON GATE  N/A       37  18  46 SW16G25    N/A   WCI  28
CARDSTON       N/A       39  21  48 W12G21     N/A   WCI  32
MILK RIVER     N/A       37  23  57 W20        N/A   WCI  27
$$

REGIONAL REPORTS...SASKATCHEWAN
CITY           SKY/WX    TMP DP  RH WIND       PRES   REMARKS
SWIFT CURRENT  CLOUDY    41  37  86 W8        29.55R
REGINA         LGT RAIN  45  43  93 W12       29.55R
VAL MARIE      N/A       43  27  53 W18G24     N/A
ASSINIBOIA     N/A       41  39  93 SW9        N/A
CORONACH       N/A       41  37  86 SW9        N/A

$$




USA.gov is the U.S. government's official web portal to all federal, state and local government web resources and services.